Regional Weather Roundup
Issued by NWS

Home | Current Version | Previous Version | Graphics & Text | Print | Product List | Glossary On
Versions: 1 2 3 4 5 6 7 8 9 10 11 12 13 14 15 16 17 18 19 20 21 22 23 24 25 26 27 28 29 30 31 32 33 34 35 36 37 38 39 40 41 42 43 44 45 46 47 48 49 50
000
ASUS43 KBIS 090110
RWRND

NORTH DAKOTA REGIONAL WEATHER ROUNDUP
NATIONAL WEATHER SERVICE BISMARCK ND
700 PM CST THU DEC 08 2016

NOTE: "FAIR" INDICATES FEW OR NO CLOUDS BELOW 12,000 FEET WITH NO
SIGNIFICANT WEATHER AND/OR OBSTRUCTIONS TO VISIBILITY.


NDZ001>003-009>011-017-090200-
NORTHWEST NORTH DAKOTA

CITY           SKY/WX    TMP DP  RH WIND       PRES   REMARKS
WILLISTON      CLOUDY    -8 -14  74 NW3       30.61F
MINOT          CLOUDY     0  -7  72 W12       30.58F WCI -17
MINOT AFB      PTCLDY    -3  -8  76 NW12      30.58F WCI -20
$$

NDZ018>021-031>035-040>046-090200-
SOUTHWEST NORTH DAKOTA

CITY           SKY/WX    TMP DP  RH WIND       PRES   REMARKS
BISMARCK       PTCLDY     0  -7  72 W8        30.62F WCI -14
DICKINSON      CLOUDY    -9 -14  78 NW10      30.50F WCI -27
GARRISON         N/A     -6 -12  75 NW12      30.58F WCI -25
HETTINGER ARPT CLOUDY    -9 -13  83 W6        30.52F WCI -22
$$

NDZ004>008-012>016-024-026-027-054-090200-
NORTHEAST NORTH DAKOTA

CITY           SKY/WX    TMP DP  RH WIND       PRES   REMARKS
GRAND FORKS    FLURRIES  10   4  76 NW9       30.59S WCI  -3
GRND FRKS AFB  CLOUDY    10   3  75 NW10      30.58F WCI  -4
DEVILS LAKE    CLOUDY     0  -5  79 NW14      30.57F WCI -19
$$

NDZ022-023-025-028>030-036>039-047>053-090200-
SOUTHEAST NORTH DAKOTA

CITY           SKY/WX    TMP DP  RH WIND       PRES   REMARKS
FARGO          FLURRIES  10   3  73 W16       30.59S WCI  -7
JAMESTOWN      CLEAR     -2  -7  79 NW14      30.59S WCI -21
$$





USA.gov is the U.S. government's official web portal to all federal, state and local government web resources and services.